Regional Weather Roundup
Issued by NWS

Home | Current Version | Previous Version | Graphics & Text | Print | Product List | Glossary On
Versions: 1 2 3 4 5 6 7 8 9 10 11 12 13 14 15 16 17 18 19 20 21 22 23 24 25 26 27 28 29 30 31 32 33 34 35 36 37 38 39 40 41 42 43 44 45 46 47 48 49 50
000
ASUS43 KBIS 240610
RWRND

NORTH DAKOTA REGIONAL WEATHER ROUNDUP
NATIONAL WEATHER SERVICE BISMARCK ND
100 AM CDT FRI OCT 24 2014

NOTE: "FAIR" INDICATES FEW OR NO CLOUDS BELOW 12,000 FEET WITH NO
SIGNIFICANT WEATHER AND/OR OBSTRUCTIONS TO VISIBILITY.


NDZ001>003-009>011-017-240700-
NORTHWEST NORTH DAKOTA

CITY           SKY/WX    TMP DP  RH WIND       PRES   REMARKS
WILLISTON      CLOUDY    44  35  70 CALM      29.78S
6HR MIN TEMP:  42; 6HR MAX TEMP:  57;

MINOT          MOCLDY    56  32  40 SW13      29.75S
MINOT AFB      MOCLDY    51  35  54 W9        29.74R
$$

NDZ018>021-031>035-040>046-240700-
SOUTHWEST NORTH DAKOTA

CITY           SKY/WX    TMP DP  RH WIND       PRES   REMARKS
BISMARCK       CLOUDY    51  32  48 SW8       29.82S
6HR MIN TEMP:  49; 6HR MAX TEMP:  62;

DICKINSON      CLOUDY    50  32  50 W8        29.82S
GARRISON         N/A     45  36  70 CALM      29.79R
6HR MIN TEMP:  45; 6HR MAX TEMP:  54;

HETTINGER ARPT CLOUDY    43  29  57 CALM      29.88R
$$

NDZ004>008-012>016-024-026-027-054-240700-
NORTHEAST NORTH DAKOTA

CITY           SKY/WX    TMP DP  RH WIND       PRES   REMARKS
GRAND FORKS    MOCLDY    45  38  76 S8        29.75S
GRND FRKS AFB  MOCLDY    51  37  57 SW10      29.75S
DEVILS LAKE    CLEAR     52  37  58 SW7       29.75S
$$

NDZ022-023-025-028>030-036>039-047>053-240700-
SOUTHEAST NORTH DAKOTA

CITY           SKY/WX    TMP DP  RH WIND       PRES   REMARKS
FARGO          MOCLDY    54  43  66 S12       29.80F
6HR MIN TEMP:  53; 6HR MAX TEMP:  59;

JAMESTOWN      MOCLDY    52  37  56 SW9       29.80S
$$




USA.gov is the U.S. government's official web portal to all federal, state and local government web resources and services.